SCP
0 0 0 0 0 0 0 0 0 0 0 0 0 0 1 1 1 1 1 1 1 1 2 2 2 2 2 2 1 1 1 1 1 1 1 1 1 1 1 1 1 1 1 1
0 0 0 0 0 0 0 0 0 0 0 0 0 1 1 1 1 1 1 1 1 1 2 2 2 2 2 2 2 2 1 1 1 1 1 1 1 1 1 1 1 1 1 1
0 0 0 0 0 0 0 0 0 0 0 0 0 1 1 1 1 1 1 1 1 1 1 2 2 2 2 2 2 2 1 1 1 1 1 1 1 1 1 1 1 1 1 1
0 0 0 0 0 0 0 0 0 0 0 0 1 1 1 1 1 1 1 1 1 1 1 1 1 1 2 2 2 1 1 1 1 1 1 1 1 1 1 2 2 2 1 1
0 0 0 0 0 0 0 0 0 0 0 0 1 1 1 1 1 1 1 1 1 1 1 1 1 2 1 1 1 1 1 1 1 1 1 1 2 2 2 2 2 2 1 1
0 0 0 0 0 0 0 0 0 0 0 0 1 1 1 1 1 1 1 1 1 1 1 2 2 2 2 1 1 1 1 1 1 1 1 1 2 2 2 2 2 2 2 1
0 0 0 0 0 0 0 0 0 0 0 0 1 1 1 1 1 1 1 1 1 1 1 2 2 2 2 1 1 1 2 1 1 1 1 1 2 2 2 2 2 2 2 2
0 0 0 0 0 0 0 0 0 0 0 1 1 1 1 1 1 1 1 1 1 1 2 2 2 2 2 1 1 1 1 1 1 1 1 1 2 2 2 2 2 2 1 1
0 0 0 0 0 0 0 0 0 0 0 1 1 1 1 1 1 1 1 1 1 1 2 2 2 2 2 2 2 2 1 1 1 1 1 1 1 2 1 1 1 1 1 1
0 0 0 0 0 0 0 0 0 0 1 1 1 1 1 1 1 1 1 1 1 1 1 2 1 1 1 1 1 1 1 1 1 1 1 1 1 1 1 1 1 1 1 1
0 0 0 0 0 0 0 0 0 0 1 1 1 1 1 1 1 1 1 1 1 1 1 1 1 1 1 1 1 1 1 1 1 1 1 1 1 1 1 1 1 1 1 1
0 0 0 0 0 0 0 0 0 1 1 1 1 1 1 1 1 1 1 1 1 1 1 1 1 1 1 1 1 1 1 1 1 1 1 1 1 0 0 0 0 0 0 0
0 0 0 0 0 0 0 0 0 1 1 1 1 1 1 1 1 1 1 1 1 1 1 1 1 1 1 1 1 1 1 1 1 1 1 1 1 0 0 0 0 0 0 0
0 0 0 0 0 0 0 0 0 0 0 1 1 1 1 1 1 1 1 1 1 1 1 1 1 1 1 1 1 1 1 1 1 1 1 1 0 0 0 0 0 0 0 0
0 0 0 0 0 0 0 0 0 0 0 0 0 0 0 0 1 1 1 1 1 1 1 1 1 1 1 1 1 1 1 1 1 1 1 1 0 0 0 0 0 0 0 0
0 0 0 0 0 0 0 0 0 0 0 0 0 0 0 0 0 1 1 1 1 1 1 1 1 1 1 1 1 1 1 1 1 1 1 0 0 0 0 0 0 0 0 0
0 0 0 0 0 0 0 0 0 0 0 0 0 0 1 1 0 0 0 1 1 1 1 1 1 1 1 1 1 1 1 1 0 1 0 0 0 0 0 0 0 0 0 0
0 0 0 0 0 0 0 0 0 0 0 0 0 0 0 0 0 0 0 0 1 1 1 1 1 1 1 1 1 1 1 1 1 0 0 0 0 0 0 0 0 0 0 0
0 0 0 0 0 0 0 0 0 0 0 0 0 0 0 0 0 0 1 1 0 0 0 0 0 0 1 1 1 1 1 0 0 0 0 0 0 0 0 0 0 0 0 0
0 0 0 0 0 0 0 0 0 0 0 0 0 0 0 0 0 1 0 0 0 0 0 0 0 0 0 0 0 0 0 0 0 0 0 0 0 0 0 0 0 0 0 0
0 0 0 0 0 0 0 0 0 0 0 0 0 0 0 0 0 0 0 0 0 0 0 0 0 0 0 0 0 0 0 0 0 0 0 0 0 0 0 0 0 0 0 0
0 0 0 0 0 0 0 0 0 0 0 0 0 0 0 0 0 0 0 0 0 0 0 0 0 0 0 0 0 0 0 0 0 0 0 0 0 0 0 0 0 0 0 0
0 0 0 0 0 0 0 0 0 0 0 0 0 0 0 0 0 0 0 0 0 0 0 0 0 0 0 0 0 0 0 0 0 0 0 0 0 0 0 0 0 0 0 0
0 0 0 0 0 0 0 0 0 0 0 0 0 0 0 0 0 0 0 0 0 0 0 0 0 0 0 0 0 0 0 0 0 0 0 0 0 0 0 0 0 0 0 0
0 0 0 0 0 0 0 0 0 0 0 0 0 0 0 0 0 0 0 0 0 0 0 0 0 0 0 0 0 0 0 0 0 0 0 0 0 0 0 0 0 0 0 0
0 0 0 0 0 0 0 0 0 0 0 0 0 0 0 0 0 0 0 0 0 0 0 0 0 0 0 0 0 0 0 0 0 0 0 0 0 0 0 0 0 0 0 0
0 0 0 0 0 0 0 0 0 0 0 0 0 0 0 0 0 0 0 0 0 0 0 0 0 0 0 0 0 0 0 0 0 0 0 0 0 0 0 0 0 0 0 0
Wind_Speed
14 14 13 13 13 12 11 11 11 10 6 3 0 2 2 3 2 3 4 3 3 3 3 2 2 1 1 1 1 2 2 3 3 2 2 2 3 3 4 4 5 4 4 4
14 16 15 14 13 12 10 9 10 10 5 3 2 2 2 2 2 3 3 2 2 3 3 2 2 1 1 0 0 1 2 2 2 2 2 2 2 3 3 3 3 3 4 4
13 13 14 13 9 8 7 7 8 8 5 3 3 3 2 2 2 2 2 2 2 2 2 2 2 1 1 1 0 1 1 1 2 2 3 3 3 2 2 3 3 3 3 3
11 12 15 7 4 6 8 7 6 5 4 4 3 3 2 2 2 1 0 1 1 1 2 2 2 2 1 1 1 1 1 1 1 2 2 2 2 2 2 2 3 3 3 3
9 13 12 7 5 6 8 6 4 5 5 4 4 3 2 4 5 3 2 3 1 0 1 2 1 1 1 1 1 1 1 2 2 1 2 2 2 2 2 2 2 3 3 2
10 12 10 4 4 5 7 5 4 5 4 4 4 3 3 6 5 4 3 2 2 1 1 2 2 1 0 1 0 1 2 2 2 2 2 2 2 2 2 2 2 2 2 2
12 12 6 5 6 6 6 4 6 6 5 5 5 5 4 5 5 4 4 3 2 2 2 2 2 1 1 1 2 2 2 2 2 2 2 2 2 1 2 2 2 2 2 1
9 10 5 5 4 4 3 5 6 7 7 6 5 5 5 5 4 4 3 3 2 2 2 2 2 2 1 1 2 1 2 2 2 1 2 1 1 1 2 2 2 2 2 2
4 3 4 6 5 5 5 5 6 6 6 6 6 5 5 5 4 4 4 4 3 2 2 3 2 1 0 1 1 1 1 1 1 1 1 1 1 1 1 2 2 2 2 2
4 2 2 3 5 6 6 5 5 5 5 5 4 4 4 4 4 4 4 2 2 3 2 3 2 2 1 1 1 1 2 1 1 1 0 1 1 0 0 1 1 1 1 1
6 3 2 3 4 5 4 4 4 5 5 5 5 5 4 4 4 4 4 3 2 2 2 2 2 2 2 1 1 2 2 2 1 1 1 1 1 1 1 1 0 0 1 1
4 4 3 4 4 5 4 4 4 4 4 3 3 4 4 3 3 3 3 2 1 2 2 2 2 2 2 1 1 1 1 1 2 1 1 1 2 1 4 3 3 3 2 1
4 5 5 4 5 4 4 3 3 3 3 3 3 3 3 3 3 3 3 4 3 2 1 1 2 2 1 1 1 1 1 1 1 1 0 1 1 1 1 1 3 3 2 2
4 5 5 4 4 4 3 3 3 3 2 2 2 2 2 3 3 4 4 4 3 2 2 2 2 2 2 1 1 1 1 1 1 1 1 1 1 1 1 1 1 1 1 2
5 5 5 4 4 3 3 2 2 2 2 1 2 2 1 2 2 3 3 3 3 2 2 2 2 3 2 2 2 1 2 1 1 1 1 1 1 1 1 0 0 1 2 2
5 5 5 4 4 4 3 3 3 2 2 1 1 1 1 1 1 2 1 1 2 2 2 2 2 3 3 2 2 1 1 1 1 1 1 1 1 1 1 0 0 1 1 1
5 5 5 5 5 4 4 3 3 3 3 2 1 1 1 1 1 1 1 1 2 2 2 2 2 3 3 3 3 2 1 1 2 2 1 1 0 0 1 1 1 0 1 2
5 5 5 5 4 3 4 3 3 3 2 2 1 0 0 1 1 1 1 2 2 2 2 2 2 3 3 3 3 3 2 1 1 1 0 0 0 1 1 1 1 1 1 2
4 4 4 4 4 3 2 2 2 2 2 1 1 1 1 1 0 0 1 1 1 2 2 2 2 3 3 2 3 2 3 2 1 0 0 0 1 1 1 1 1 1 0 1
2 1 1 2 2 1 1 1 1 1 1 1 1 1 1 1 1 1 1 1 1 2 2 2 3 3 3 2 3 3 3 2 2 1 0 0 1 1 1 1 0 0 1 1
1 0 1 2 1 0 0 0 1 1 0 0 0 1 1 1 1 1 1 1 0 1 2 2 3 3 2 3 4 3 2 2 2 1 1 1 1 1 1 1 1 1 1 1
2 2 1 1 1 1 1 0 1 1 0 0 1 1 1 1 2 1 1 1 1 1 2 2 1 3 4 5 4 3 2 1 2 1 1 1 1 1 1 1 1 1 1 1
2 2 2 2 1 1 1 1 1 1 1 1 1 1 2 1 1 1 1 1 0 1 2 2 2 3 4 4 4 3 2 1 2 1 1 1 1 1 1 1 1 1 2 2
2 3 3 3 2 2 2 2 2 1 2 2 2 2 2 2 1 1 1 1 1 0 1 2 2 1 3 3 3 2 2 1 1 1 1 1 1 1 1 2 2 2 2 2
3 3 3 4 4 3 3 3 3 3 3 2 2 2 2 1 1 1 1 2 2 1 0 1 2 2 3 2 2 2 2 2 2 2 1 1 1 2 1 1 1 2 2 2
4 4 3 4 3 3 3 2 2 2 2 2 1 0 0 0 0 0 1 1 1 1 1 0 1 2 2 2 2 2 1 0 0 1 1 1 1 1 1 1 2 2 2 2
5 4 3 4 3 3 3 2 2 2 2 1 1 0 0 1 1 0 0 0 0 0 0 0 0 1 1 1 1 2 1 1 1 1 1 1 1 1 1 2 2 2 2 2
Wind_Direction
275 276 274 270 266 267 267 271 277 284 279 279 17 98 112 127 149 133 123 118 107 112 116 110 108 116 114 143 151 171 184 202 213 221 233 242 242 240 239 238 240 236 242 245
273 272 270 268 266 264 265 274 281 290 295 332 5 56 92 121 165 141 130 127 134 123 130 133 133 130 127 113 106 153 190 209 207 216 222 236 242 243 245 245 248 242 240 243
271 275 275 262 264 269 273 281 283 285 301 330 354 15 14 356 252 149 161 171 182 147 137 154 172 171 167 162 208 224 215 220 211 214 221 228 244 242 246 250 244 242 245 242
268 270 264 271 286 282 281 288 310 326 347 350 354 360 357 332 333 78 329 113 133 158 158 167 176 179 174 177 199 236 256 264 244 238 241 235 232 235 241 252 252 240 244 244
265 263 256 259 288 294 287 286 344 355 350 359 354 342 360 20 5 3 36 45 27 218 173 147 148 151 173 201 194 244 269 287 286 271 264 251 244 246 241 239 244 243 240 240
257 267 266 271 309 309 286 262 16 356 353 353 333 316 353 358 10 357 4 60 38 8 69 88 77 90 118 270 249 279 295 302 304 295 278 269 261 253 241 229 231 240 236 224
253 259 262 319 325 305 279 337 357 354 354 349 348 354 349 3 18 358 358 29 48 22 57 74 56 84 54 344 306 308 313 311 308 295 275 262 259 246 231 229 227 225 231 215
248 255 258 356 349 345 359 7 359 4 2 1 5 8 356 6 14 2 2 12 23 38 51 62 57 60 40 339 311 341 326 306 303 300 284 285 265 239 226 224 222 210 201 218
280 284 30 30 36 37 33 26 11 3 4 9 8 4 3 8 6 11 28 16 16 36 55 63 56 59 147 290 340 332 297 289 293 308 328 334 262 238 231 227 231 232 215 214
277 231 38 25 21 32 30 24 12 0 4 14 14 0 6 14 11 18 27 25 24 28 45 56 49 32 11 7 353 302 288 275 268 260 245 21 7 329 295 295 277 266 253 238
280 316 2 17 14 13 26 28 13 10 11 14 14 9 11 16 24 15 5 16 23 36 36 29 33 24 4 345 304 278 274 260 243 231 212 133 86 11 350 29 243 216 310 289
309 351 334 337 350 347 360 10 6 12 15 10 4 1 7 10 25 14 349 354 17 40 45 30 20 18 8 345 317 286 275 283 269 240 204 177 155 95 42 52 73 83 90 109
320 323 321 321 320 321 327 337 356 7 15 12 10 4 5 6 16 11 359 4 4 9 27 33 17 9 5 345 333 305 296 296 280 284 278 231 189 198 166 90 74 66 79 119
299 301 295 301 302 309 317 336 348 351 357 17 9 353 353 360 356 356 357 348 335 1 24 32 19 2 345 337 325 309 284 282 269 253 257 253 234 259 253 182 133 107 93 131
284 284 280 285 293 301 306 312 318 322 346 360 334 329 342 3 356 353 353 340 344 12 21 13 9 357 343 335 327 312 301 284 280 278 269 265 263 263 286 17 89 102 96 100
280 282 275 268 271 274 279 279 284 289 300 307 315 328 344 1 6 5 2 347 354 8 4 1 0 349 336 335 330 304 292 308 261 257 246 245 236 271 317 352 187 130 124 112
267 272 270 261 258 254 265 274 278 287 293 292 306 326 6 28 32 12 333 333 18 9 12 0 354 347 326 316 308 298 282 222 202 225 230 257 303 350 320 295 272 162 128 120
264 267 273 269 261 249 258 267 271 278 287 297 302 319 312 281 282 314 342 4 15 359 358 352 349 329 313 314 308 298 294 273 237 261 263 230 249 274 272 275 305 318 139 144
253 259 270 258 242 232 250 272 286 297 300 298 291 277 253 245 258 323 347 329 306 300 317 345 321 288 286 298 307 283 273 275 270 248 251 174 248 246 223 217 239 287 278 154
263 253 280 274 247 217 225 238 261 292 306 299 277 258 256 231 211 215 228 266 301 337 342 348 310 297 298 320 310 291 288 278 273 272 324 296 284 286 277 280 323 324 307 275
24 19 270 274 298 359 14 332 320 278 270 280 266 245 225 201 224 230 245 260 26 357 327 314 291 306 330 339 304 298 310 321 321 305 294 301 293 287 287 294 299 296 296 299
9 350 309 293 315 341 336 311 280 273 235 240 260 229 195 205 216 217 241 287 308 354 290 292 347 15 356 324 303 302 301 305 305 297 296 295 291 297 299 318 309 299 298 306
346 329 310 285 285 284 291 283 240 264 246 230 261 287 284 287 258 250 258 279 272 317 299 3 44 30 336 304 303 304 317 314 307 315 320 304 292 299 324 336 330 329 338 343
297 299 296 290 277 253 240 236 228 233 245 230 213 236 257 268 266 248 215 133 111 137 332 71 104 5 308 298 305 315 329 329 319 326 325 327 331 339 350 349 346 353 359 355
267 268 263 268 269 251 221 221 220 224 240 236 225 209 225 254 302 349 80 105 120 150 118 136 175 262 284 296 300 312 328 345 352 354 353 358 351 350 355 337 326 320 314 304
254 257 256 257 270 276 253 236 241 242 239 237 232 259 303 74 47 126 139 162 172 185 180 167 189 219 267 293 303 309 312 307 290 318 334 319 310 306 305 316 320 307 306 311
252 248 239 248 248 246 249 244 240 245 253 270 287 275 5 73 84 74 87 123 149 317 345 201 252 256 278 291 294 293 296 319 317 295 294 305 317 321 318 316 308 309 320 346